Starlink 30496

operational
NORAD ID: 57919 Int'l Des: 2023-147 Owner: SPXS Country: US Constellation: starlink
LEOCIRCULAR

Starlink 30496について

説明を読み込み中...

リアルタイム位置

3D地球を読み込み中...

次回通過

高度履歴

Altitude vs Time

uPlot chart will show altitude changes over time

軌道要素

1 57919U 23147G 25260.23478306 -.00000562 00000-0 -26532-4 0 9993
2 57919 43.0027 188.7518 0000619 268.4325 91.6447 15.02525999110520
Epoch: Sep 17, 2025 • Age: 39 hours

現在のステータス

高度 561.5 km
速度 7.58 km/s
衛星直下点 -13.43°S, 64.44°E
打ち上げ日 Sep 24, 2023
運用期間 1.9 years
タイプ internet

技術仕様

分類 Payload
質量 730.00 kg
乾燥質量 700.00 kg
総質量 730.00 kg
長さ 0.30 m
直径 4.10 m
スパン 29.00 m
形状 Box + pan
製造者 SPXS
バスタイプ Starlink V2M
フェーズステータス In Orbit
所有者/国 SPXS/US

大規模コンステレーション

Loading constellations...